Flag for Brazil Weather past 2 weeks in Boa Vista, Roraima, Brazil

Now
72 °F

Broken clouds.


Feels Like: 67 °F
Forecast: 78 / 89 °F
Wind: No wind

Location: Boa Vista Aeropor-To

Current Time: Sep 18, 2014 at 6:26:35 AM

Latest Report: Sep 18, 2014 at 6:00 AM


Visibility: N/A

Pressure: 29.92 "Hg

Humidity: 94%

Dew point: 70 °F

Location of Boa VistaLocation

Historic Weather in Boa Vista — Graph

°F

Boa Vista temperature yesterday

Maximum temperature yesterday: 88 °F (at 12:00 PM)
Minimum temperature yesterday: 73 °F (at 6:00 AM)
Average temperature yesterday: 79 °F

Past Weeks' High & Low Weather Summary

 TemperatureHumidityPressure
High95 °F (Sep 3, 1:00 PM)94% (Sep 17, 6:00 AM)29.98 "Hg (Sep 17, 6:00 AM)
Low72 °F (Sep 18, 4:00 AM)34% (Sep 5, 3:00 PM)29.71 "Hg (Sep 11, 5:00 PM)
Average83 °F64%29.87 "Hg
* Reported Sep 3 5:00 AM — Sep 18 5:00 AM, Boa Vista, Weather by CustomWeather, © 2014

Note: Actual official high and low records may vary slightly from our data, if they occured in-between our weather recording intervals... More about our weather records

Advertising

Boa Vista weather history for previous 24 hours

 ConditionsComfort  
Time TempWeatherWind HumidityBarometerVisibility
5:00 AM
Sep 18
72 °FPartly cloudy.5 mph94%29.89 "HgN/A
4:00 AM72 °FPartly cloudy.6 mph94%29.89 "HgN/A
3:00 AM73 °FPartly cloudy.7 mph94%29.86 "HgN/A
2:00 AM73 °FPartly cloudy.5 mph94%29.86 "HgN/A
1:00 AM73 °FPassing clouds.No wind94%29.89 "HgN/A
12:00 AM73 °FPassing clouds.3 mph94%29.92 "HgN/A
11:00 PM
Sep 17
75 °FThundershowers. Passing clouds.6 mph89%N/AN/A
10:00 PM75 °FPassing clouds.7 mph89%29.92 "HgN/A
9:00 PM75 °FThundershowers. Passing clouds.3 mph89%29.89 "HgN/A
8:00 PM75 °FThundershowers. Passing clouds.1 mph83%29.86 "HgN/A
7:00 PM77 °FPassing clouds.6 mph79%29.83 "HgN/A
6:00 PM77 °FScattered showers. Passing clouds.9 mph79%N/AN/A
5:00 PM77 °FScattered showers. Partly sunny.9 mph79%N/AN/A
4:00 PM77 °FThunderstorms. Partly sunny.13 mph79%29.80 "HgN/A
3:00 PM79 °FThunderstorms. Partly sunny.8 mphN/AN/AN/A
2:00 PM81 °FThunderstorms. Partly sunny.9 mph66%29.83 "HgN/A
1:00 PM88 °FScattered showers. Partly sunny.6 mph55%29.83 "HgN/A
12:00 PM88 °FScattered showers. Partly sunny.2 mph55%29.89 "HgN/A
11:00 AM86 °FPartly sunny.6 mph59%29.92 "HgN/A
10:00 AM84 °FPartly sunny.9 mph62%29.92 "HgN/A
9:00 AM82 °FScattered clouds.12 mph66%29.92 "HgN/A
8:00 AM81 °FScattered clouds.12 mph70%29.92 "HgN/A
7:00 AM77 °FSunny.No wind79%29.89 "Hg10 mi
6:00 AM73 °FSunny.No wind94%29.86 "Hg10 mi
Weather by CustomWeather, © 2014

See weather overviewHow to use our weather pages